星链-34864 (STARLINK-34864)

导读

STARLINK-34864是美国SpaceX公司星链(Starlink)星座的卫星,于2025年8月27日发射。作为低轨通信卫星,它采用平板设计与太阳能供电,搭载Ku/Ka波段通信载荷,依托霍尔推进器实现轨道调控,具备自主避撞能力。其核心任务是补充星链星座规模,为全球提供高速宽带互联网服务,服役末期将主动离轨再入大气层焚毁,减少空间碎片影响。

Basic Information
目录编号:
65330
目录名称:
STARLINK-34864
国际标识:
2025-189H
轨道中心:
EARTH
卫星名称:
星链-34864
卫星全名:
星链-34864 (STARLINK-34864)
卫星状态:
在轨 (已飞行382 天)
发射日期:
2025-08-27 UTC
国别 :
美国 (US)
星等 :
--
This satellite is enrolled in the Space Conjunction Data Service (SCDS) and the current flight risk assessment level is: No High Risk
Orbit Information
数据来源 国际轨道数据
星历时间: 2026-09-12T02:33:52+0800
1天前
查看轨道信息
半长轴: 6848.941km
偏心率: 0.0001006
轨道倾角: 53.159°
近地点辐角 98.152°
升交点赤经 61.227°
平近点角 261.959°
近地点: 470.114km
远地点: 471.494km
周期: 94.014分钟
每日圈数: 15.316787
Detailed Information
固有亮度:
5
最大亮度:
2.5
卫星平台:
Starlink V1.0
覆盖范围:
全球
运营商:
太空探索技术公司
运营商所在国:
美国
制造商(研发单位):
太空探索技术公司
制造商所在国:
美国
使用方式:
暂无
Satellite Introduction
Starlink 计划是 SpaceX 推出的全球卫星互联网项目,通过发射低轨道卫星,为全球尤其是偏远地区提供高速、低延迟的互联网服务。自 2019 年起,Starlink 已部署数千颗卫星,旨在缩小全球数字鸿沟,推动互联网普及。该项目还为军事、航空等行业提供通信支持,带来广泛经济效益。
2D Orbit Map
3D Orbit Map
Orbit Altitude Analysis Chart
Orbit Inclination Analysis Chart
Orbit Comprehensive Analysis Chart
View Comprehensive Chart
Conjunction Data List
Event ID Objects TCA Miss Dist (km) Collision Risk Probability Collision Risk Index (CRI) Action
CDM_260913-072605-959006-533022
2026-09-13T
07:26:57+0000
2.199 km
极远距离
2.277822E-6 低风险 0.42
CDM_260913-091006-533006-883921
2026-09-13T
09:10:37+0000
2.861 km
极远距离
1.384751E-6 低风险 0.38
CDM_260913-003806-533006-877022
2026-09-13T
00:38:29+0000
2.890 km
极远距离
1.319996E-6 低风险 0.37
Miss Distance Evolution Trend with All Objects
Collision Probability Evolution Trend with All Objects